Location: *
(50.3440°N, 18.6237°E)
Time: 18:01:54
(UTC+00:00)

ARGOS - Pass Details

Date: 30 November 2020
Orbit: 820 x 835 km, 98.4° (Epoch: 23 January)

Event Time Altitude Azimuth Distance (km) Brightness Sun altitude
Exits shadow 18:27:17 37° 310° (NW) 1,264 4.4 -34.5°
Drops below altitude 10° 18:30:52 10° 337° (NNW) 2,444 5.9 -35.0°
Sets 18:33:19 0° 342° (NNW) 3,380 6.6 -35.4°
